This is the latest recevied weather packets stored in our database for station/object KC1TEM-13. If no packets are shown the sender has not sent any weather packets the latest 10 day(s).
| Time | Temp. | Humidity | Pressure | Rain* | Wind** | Luminosity | Snow |
|---|---|---|---|---|---|---|---|
| 1777466966 | 7.78° C | 90% | 1019.1 hPa | 0 mm | - | 100 W/m² | - |
| 1777466664 | 7.78° C | 90% | 1019.2 hPa | 0 mm | - | 71 W/m² | - |
| 1777466361 | 7.78° C | 91% | 1019.3 hPa | 0 mm | - | 107 W/m² | - |
| 1777466057 | 7.78° C | 91% | 1019.3 hPa | 0 mm | - | 91 W/m² | - |
| 1777465754 | 7.78° C | 91% | 1019.3 hPa | 0 mm | - | 77 W/m² | - |
| 1777465450 | 7.78° C | 91% | 1019.2 hPa | 0 mm | - | 77 W/m² | - |
| 1777465148 | 7.78° C | 91% | 1019.4 hPa | 0 mm | - | 80 W/m² | - |
| 1777464844 | 7.78° C | 90% | 1019.2 hPa | 0 mm | - | 70 W/m² | - |
| 1777464539 | 7.78° C | 90% | 1019.2 hPa | 0 mm | - | 78 W/m² | - |
| 1777464235 | 7.78° C | 90% | 1019.4 hPa | 0 mm | - | 86 W/m² | - |
| 1777463930 | 7.78° C | 90% | 1019.4 hPa | 0 mm | - | 78 W/m² | - |
| 1777463626 | 7.78° C | 90% | 1019.3 hPa | 0 mm | - | 76 W/m² | - |
| 1777463321 | 7.78° C | 90% | 1019.3 hPa | 0 mm | - | 73 W/m² | - |
| 1777463018 | 7.22° C | 90% | 1019.2 hPa | 0 mm | - | 68 W/m² | - |
| 1777462713 | 7.22° C | 90% | 1019.3 hPa | 0 mm | - | 56 W/m² | - |
| 1777462409 | 7.22° C | 90% | 1019 hPa | 0 mm | - | 61 W/m² | - |
| 1777462105 | 7.22° C | 90% | 1019 hPa | 0 mm | - | 54 W/m² | - |
| 1777461802 | 7.22° C | 89% | 1019 hPa | 0 mm | - | 50 W/m² | - |
| 1777461498 | 7.22° C | 89% | 1018.8 hPa | 0 mm | - | 52 W/m² | - |
| 1777461194 | 7.22° C | 89% | 1018.9 hPa | 0 mm | - | 43 W/m² | - |
| 1777460890 | 7.22° C | 88% | 1018.9 hPa | 0 mm | - | 38 W/m² | - |
| 1777460585 | 7.22° C | 87% | 1018.8 hPa | 0 mm | - | 32 W/m² | - |
| 1777460281 | 7.22° C | 87% | 1019.1 hPa | 0 mm | - | 28 W/m² | - |
| 1777459979 | 7.22° C | 87% | 1019.1 hPa | 0 mm | - | 26 W/m² | - |
| 1777459675 | 7.22° C | 87% | 1019.1 hPa | 0 mm | - | 20 W/m² | - |
* Rain latest hour (hover to see other rain measurements)
** Current wind speed in m/s (hover to see current wind gust speed)